Time,TemperatureF,DewpointF,PressureIn,WindDirection,WindDirectionDegrees,WindSpeedMPH,WindSpeedGustMPH,Humidity,HourlyPrecipIn,Conditions,Clouds,dailyrainin,SoftwareType,DateUTC
2013-03-18 00:00:00,28.0,13.5,30.23,NNE,22,0.2,0.2,54,0.00,CLR,,0.00,WeatherDisplay:10.37,2013-03-18 04:00:00,
2013-03-18 00:05:00,28.4,13.4,30.23,NNE,22,0.2,0.2,53,0.00,CLR,,0.00,WeatherDisplay:10.37,2013-03-18 04:05:00,
2013-03-18 00:10:00,28.6,13.2,30.24,NNE,22,0.2,0.0,52,0.00,CLR,,0.00,WeatherDisplay:10.37,2013-03-18 04:10:00,
2013-03-18 00:15:00,28.8,13.3,30.24,NNE,22,0.2,0.2,52,0.00,CLR,,0.00,WeatherDisplay:10.37,2013-03-18 04:15:00,
2013-03-18 00:20:00,28.6,13.2,30.24,NNE,22,0.2,0.2,52,0.00,CLR,,0.00,WeatherDisplay:10.37,2013-03-18 04:20:00,
2013-03-18 00:25:00,28.6,12.7,30.24,NNE,22,0.2,0.2,51,0.00,CLR,,0.00,WeatherDisplay:10.37,2013-03-18 04:25:00,
2013-03-18 00:30:00,28.8,12.4,30.24,NNE,22,0.2,0.2,50,0.00,CLR,,0.00,WeatherDisplay:10.37,2013-03-18 04:30:00,
2013-03-18 00:35:00,28.9,13.1,30.24,NNE,22,0.2,0.2,51,0.00,CLR,,0.00,WeatherDisplay:10.37,2013-03-18 04:35:00,
2013-03-18 00:40:00,28.9,13.1,30.24,NNE,22,0.2,0.0,51,0.00,CLR,,0.00,WeatherDisplay:10.37,2013-03-18 04:40:00,
2013-03-18 00:45:00,28.8,12.9,30.24,NNE,22,0.2,0.2,51,0.00,CLR,,0.00,WeatherDisplay:10.37,2013-03-18 04:45:00,
2013-03-18 00:50:00,28.6,12.7,30.24,NNE,22,0.2,0.2,51,0.00,CLR,,0.00,WeatherDisplay:10.37,2013-03-18 04:50:00,
2013-03-18 00:55:00,28.4,12.6,30.24,NNE,22,0.2,0.2,51,0.00,CLR,,0.00,WeatherDisplay:10.37,2013-03-18 04:55:00,
2013-03-18 01:00:00,28.6,13.2,30.24,NNE,22,0.2,0.2,52,0.00,CLR,,0.00,WeatherDisplay:10.37,2013-03-18 05:00:00,
2013-03-18 01:05:00,28.4,12.6,30.24,NNE,22,0.2,0.2,51,0.00,CLR,,0.00,WeatherDisplay:10.37,2013-03-18 05:05:00,
2013-03-18 01:10:00,28.2,12.8,30.25,NNE,22,0.2,0.2,52,0.00,CLR,,0.00,WeatherDisplay:10.37,2013-03-18 05:10:00,
2013-03-18 01:15:00,28.2,13.3,30.25,NNE,22,0.2,0.2,53,0.00,CLR,,0.00,WeatherDisplay:10.37,2013-03-18 05:15:00,
2013-03-18 01:20:00,28.4,13.4,30.25,NNE,22,0.2,0.0,53,0.00,CLR,,0.00,WeatherDisplay:10.37,2013-03-18 05:20:00,
2013-03-18 01:25:00,28.4,13.4,30.26,NNE,22,0.2,0.2,53,0.00,CLR,,0.00,WeatherDisplay:10.37,2013-03-18 05:25:00,
2013-03-18 01:30:00,28.4,13.4,30.26,NNE,22,0.2,0.2,53,0.00,CLR,,0.00,WeatherDisplay:10.37,2013-03-18 05:30:00,
2013-03-18 01:35:00,28.4,13.4,30.26,NNE,22,0.2,0.2,53,0.00,CLR,,0.00,WeatherDisplay:10.37,2013-03-18 05:35:00,
2013-03-18 01:40:00,28.2,13.3,30.27,NNE,22,0.2,0.0,53,0.00,CLR,,0.00,WeatherDisplay:10.37,2013-03-18 05:40:00,
2013-03-18 01:45:00,28.0,12.7,30.26,NNE,22,0.2,0.2,52,0.00,CLR,,0.00,WeatherDisplay:10.37,2013-03-18 05:45:00,
2013-03-18 01:50:00,28.0,12.7,30.27,NNE,22,0.2,0.2,52,0.00,CLR,,0.00,WeatherDisplay:10.37,2013-03-18 05:50:00,
2013-03-18 01:55:00,28.0,12.7,30.27,NNE,22,0.2,0.2,52,0.00,CLR,,0.00,WeatherDisplay:10.37,2013-03-18 05:55:00,
2013-03-18 02:00:00,27.9,12.5,30.27,NNE,22,0.2,0.2,52,0.00,CLR,,0.00,WeatherDisplay:10.37,2013-03-18 06:00:00,
2013-03-18 02:05:00,27.7,11.9,30.27,NNE,22,0.2,0.2,51,0.00,CLR,,0.00,WeatherDisplay:10.37,2013-03-18 06:05:00,
2013-03-18 02:10:00,27.7,11.4,30.28,NNE,22,0.2,0.2,50,0.00,CLR,,0.00,WeatherDisplay:10.37,2013-03-18 06:10:00,
2013-03-18 02:15:00,27.7,11.4,30.27,NNE,22,0.2,0.2,50,0.00,CLR,,0.00,WeatherDisplay:10.37,2013-03-18 06:15:00,
2013-03-18 02:20:00,27.7,11.4,30.27,NNE,22,0.2,0.2,50,0.00,CLR,,0.00,WeatherDisplay:10.37,2013-03-18 06:20:00,
2013-03-18 02:25:00,27.7,11.0,30.28,NNE,22,0.2,0.2,49,0.00,CLR,,0.00,WeatherDisplay:10.37,2013-03-18 06:25:00,
2013-03-18 02:30:00,27.5,11.3,30.28,NNE,22,0.2,0.2,50,0.00,CLR,,0.00,WeatherDisplay:10.37,2013-03-18 06:30:00,
2013-03-18 02:35:00,27.3,10.6,30.27,NNE,22,0.2,0.2,49,0.00,CLR,,0.00,WeatherDisplay:10.37,2013-03-18 06:35:00,
2013-03-18 02:40:00,27.5,10.4,30.27,NNE,22,0.2,0.2,48,0.00,CLR,,0.00,WeatherDisplay:10.37,2013-03-18 06:40:00,
2013-03-18 02:45:00,27.5,10.4,30.28,NNE,22,0.2,0.2,48,0.00,CLR,,0.00,WeatherDisplay:10.37,2013-03-18 06:45:00,
2013-03-18 02:50:00,27.3,10.2,30.28,NNE,22,0.2,0.2,48,0.00,CLR,,0.00,WeatherDisplay:10.37,2013-03-18 06:50:00,
2013-03-18 02:55:00,27.1,10.0,30.29,NNE,22,0.2,0.0,48,0.00,CLR,,0.00,WeatherDisplay:10.37,2013-03-18 06:55:00,
2013-03-18 03:00:00,27.0,9.9,30.28,NNE,22,0.2,0.2,48,0.00,CLR,,0.00,WeatherDisplay:10.37,2013-03-18 07:00:00,
2013-03-18 03:05:00,27.0,9.9,30.29,NNE,22,0.2,0.2,48,0.00,CLR,,0.00,WeatherDisplay:10.37,2013-03-18 07:05:00,
2013-03-18 03:10:00,27.0,9.9,30.29,NNE,22,0.2,0.2,48,0.00,CLR,,0.00,WeatherDisplay:10.37,2013-03-18 07:10:00,
2013-03-18 03:15:00,26.8,9.7,30.29,NNE,22,0.2,0.2,48,0.00,CLR,,0.00,WeatherDisplay:10.37,2013-03-18 07:15:00,
2013-03-18 03:20:00,26.6,9.1,30.29,NNE,22,0.2,0.2,47,0.00,CLR,,0.00,WeatherDisplay:10.37,2013-03-18 07:20:00,
2013-03-18 03:25:00,26.6,9.5,30.29,NNE,22,0.2,0.2,48,0.00,CLR,,0.00,WeatherDisplay:10.37,2013-03-18 07:25:00,
2013-03-18 03:30:00,26.4,8.9,30.30,NNE,22,0.2,0.2,47,0.00,CLR,,0.00,WeatherDisplay:10.37,2013-03-18 07:30:00,
2013-03-18 03:35:00,26.2,7.8,30.30,NNE,22,0.2,0.2,45,0.00,CLR,,0.00,WeatherDisplay:10.37,2013-03-18 07:35:00,
2013-03-18 03:40:00,26.2,8.2,30.30,NNE,22,0.2,0.0,46,0.00,CLR,,0.00,WeatherDisplay:10.37,2013-03-18 07:40:00,
2013-03-18 03:45:00,26.1,7.1,30.29,NNE,22,0.2,0.2,44,0.00,CLR,,0.00,WeatherDisplay:10.37,2013-03-18 07:45:00,
2013-03-18 03:50:00,26.2,7.3,30.30,NNE,22,0.2,0.2,44,0.00,CLR,,0.00,WeatherDisplay:10.37,2013-03-18 07:50:00,
2013-03-18 03:55:00,26.1,7.1,30.30,NNE,22,0.2,0.2,44,0.00,CLR,,0.00,WeatherDisplay:10.37,2013-03-18 07:55:00,
2013-03-18 04:00:00,26.1,7.1,30.30,NNE,22,0.2,0.2,44,0.00,CLR,,0.00,WeatherDisplay:10.37,2013-03-18 08:00:00,
2013-03-18 04:05:00,25.9,6.9,30.30,NNE,22,0.2,0.0,44,0.00,CLR,,0.00,WeatherDisplay:10.37,2013-03-18 08:05:00,
2013-03-18 04:10:00,25.7,7.3,30.30,NNE,22,0.2,0.2,45,0.00,CLR,,0.00,WeatherDisplay:10.37,2013-03-18 08:10:00,
2013-03-18 04:15:00,25.5,7.1,30.30,NNE,22,0.2,0.2,45,0.00,CLR,,0.00,WeatherDisplay:10.37,2013-03-18 08:15:00,
2013-03-18 04:20:00,25.5,7.6,30.31,NNE,22,0.2,0.2,46,0.00,CLR,,0.00,WeatherDisplay:10.37,2013-03-18 08:20:00,
2013-03-18 04:25:00,25.5,7.6,30.31,NNE,22,0.2,0.2,46,0.00,CLR,,0.00,WeatherDisplay:10.37,2013-03-18 08:25:00,
2013-03-18 04:30:00,25.3,7.9,30.31,NNE,22,0.2,0.2,47,0.00,CLR,,0.00,WeatherDisplay:10.37,2013-03-18 08:30:00,
2013-03-18 04:35:00,25.2,8.2,30.31,NNE,22,0.2,0.2,48,0.00,CLR,,0.00,WeatherDisplay:10.37,2013-03-18 08:35:00,
2013-03-18 04:40:00,25.2,8.2,30.31,NNE,22,0.2,0.2,48,0.00,CLR,,0.00,WeatherDisplay:10.37,2013-03-18 08:40:00,
2013-03-18 04:45:00,25.0,8.0,30.30,NNE,22,0.2,0.2,48,0.00,CLR,,0.00,WeatherDisplay:10.37,2013-03-18 08:45:00,
2013-03-18 04:50:00,24.8,7.9,30.31,NNE,22,0.2,0.0,48,0.00,CLR,,0.00,WeatherDisplay:10.37,2013-03-18 08:50:00,
2013-03-18 04:55:00,24.8,8.3,30.31,NNE,22,0.2,0.0,49,0.00,CLR,,0.00,WeatherDisplay:10.37,2013-03-18 08:55:00,
2013-03-18 05:00:00,24.6,8.6,30.30,NNE,22,0.2,0.2,50,0.00,CLR,,0.00,WeatherDisplay:10.37,2013-03-18 09:00:00,
2013-03-18 05:05:00,24.6,8.6,30.30,NNE,22,0.2,0.2,50,0.00,CLR,,0.00,WeatherDisplay:10.37,2013-03-18 09:05:00,
2013-03-18 05:10:00,24.8,8.8,30.31,NNE,22,0.2,0.2,50,0.00,CLR,,0.00,WeatherDisplay:10.37,2013-03-18 09:10:00,
2013-03-18 05:15:00,24.6,9.0,30.31,NNE,22,0.2,0.0,51,0.00,CLR,,0.00,WeatherDisplay:10.37,2013-03-18 09:15:00,
2013-03-18 05:20:00,24.6,9.0,30.31,NNE,22,0.2,0.2,51,0.00,CLR,,0.00,WeatherDisplay:10.37,2013-03-18 09:20:00,
2013-03-18 05:25:00,24.4,8.9,30.32,NNE,22,0.2,0.2,51,0.00,CLR,,0.00,WeatherDisplay:10.37,2013-03-18 09:25:00,
2013-03-18 05:30:00,24.1,8.5,30.31,NNE,22,0.2,0.2,51,0.00,CLR,,0.00,WeatherDisplay:10.37,2013-03-18 09:30:00,
2013-03-18 05:35:00,23.9,8.4,30.32,NNE,22,0.2,0.2,51,0.00,CLR,,0.00,WeatherDisplay:10.37,2013-03-18 09:35:00,
2013-03-18 05:40:00,23.7,9.1,30.32,NNE,22,0.2,0.2,53,0.00,CLR,,0.00,WeatherDisplay:10.37,2013-03-18 09:40:00,
2013-03-18 05:45:00,23.5,8.9,30.32,NNE,22,0.2,0.2,53,0.00,CLR,,0.00,WeatherDisplay:10.37,2013-03-18 09:45:00,
2013-03-18 05:50:00,23.4,8.7,30.33,NNE,22,0.2,0.2,53,0.00,CLR,,0.00,WeatherDisplay:10.37,2013-03-18 09:50:00,
2013-03-18 05:55:00,23.5,9.3,30.33,NNE,22,0.2,0.0,54,0.00,CLR,,0.00,WeatherDisplay:10.37,2013-03-18 09:55:00,
2013-03-18 06:00:00,23.5,9.3,30.34,NNE,22,0.2,0.2,54,0.00,CLR,,0.00,WeatherDisplay:10.37,2013-03-18 10:00:00,
2013-03-18 06:05:00,23.4,9.1,30.34,NNE,22,0.2,0.2,54,0.00,CLR,,0.00,WeatherDisplay:10.37,2013-03-18 10:05:00,
2013-03-18 06:10:00,23.4,9.1,30.34,NNE,22,0.2,0.2,54,0.00,CLR,,0.00,WeatherDisplay:10.37,2013-03-18 10:10:00,
2013-03-18 06:15:00,23.2,9.4,30.34,NNE,22,0.2,0.2,55,0.00,CLR,,0.00,WeatherDisplay:10.37,2013-03-18 10:15:00,
2013-03-18 06:20:00,23.2,9.4,30.34,NNE,22,0.2,0.2,55,0.00,CLR,,0.00,WeatherDisplay:10.37,2013-03-18 10:20:00,
2013-03-18 06:25:00,23.0,9.2,30.34,NNE,22,0.2,0.2,55,0.00,CLR,,0.00,WeatherDisplay:10.37,2013-03-18 10:25:00,
2013-03-18 06:30:00,23.0,9.2,30.35,NNE,22,0.2,0.2,55,0.00,CLR,,0.00,WeatherDisplay:10.37,2013-03-18 10:30:00,
2013-03-18 06:35:00,22.8,9.0,30.35,NNE,22,0.2,0.2,55,0.00,CLR,,0.00,WeatherDisplay:10.37,2013-03-18 10:35:00,
2013-03-18 06:40:00,22.6,8.9,30.35,NNE,22,0.2,0.2,55,0.00,CLR,,0.00,WeatherDisplay:10.37,2013-03-18 10:40:00,
2013-03-18 06:45:00,22.5,9.1,30.35,NNE,22,0.2,0.2,56,0.00,CLR,,0.00,WeatherDisplay:10.37,2013-03-18 10:45:00,
2013-03-18 06:50:00,22.1,8.8,30.35,NNE,22,0.2,0.2,56,0.00,CLR,,0.00,WeatherDisplay:10.37,2013-03-18 10:50:00,
2013-03-18 06:55:00,21.9,9.0,30.36,NNE,22,0.2,0.2,57,0.00,CLR,,0.00,WeatherDisplay:10.37,2013-03-18 10:55:00,
2013-03-18 07:00:00,21.9,9.0,30.36,NNE,22,0.2,0.0,57,0.00,CLR,,0.00,WeatherDisplay:10.37,2013-03-18 11:00:00,
2013-03-18 07:05:00,21.9,9.0,30.36,NNE,22,0.2,0.2,57,0.00,CLR,,0.00,WeatherDisplay:10.37,2013-03-18 11:05:00,
2013-03-18 07:10:00,21.7,9.2,30.36,NNE,22,0.2,0.2,58,0.00,CLR,,0.00,WeatherDisplay:10.37,2013-03-18 11:10:00,
2013-03-18 07:15:00,21.7,9.2,30.37,NNE,22,0.2,0.2,58,0.00,CLR,,0.00,WeatherDisplay:10.37,2013-03-18 11:15:00,
2013-03-18 07:20:00,21.9,9.4,30.37,NNE,22,0.2,0.2,58,0.00,CLR,,0.00,WeatherDisplay:10.37,2013-03-18 11:20:00,
2013-03-18 07:25:00,21.9,9.8,30.37,NNE,22,0.2,0.0,59,0.00,CLR,,0.00,WeatherDisplay:10.37,2013-03-18 11:25:00,
2013-03-18 07:30:00,22.1,9.9,30.37,NNE,22,0.2,0.2,59,0.00,CLR,,0.00,WeatherDisplay:10.37,2013-03-18 11:30:00,
2013-03-18 07:35:00,22.5,10.3,30.37,NNE,22,0.2,0.2,59,0.00,CLR,,0.00,WeatherDisplay:10.37,2013-03-18 11:35:00,
2013-03-18 07:40:00,23.0,10.8,30.37,NNE,22,0.2,0.2,59,0.00,CLR,,0.00,WeatherDisplay:10.37,2013-03-18 11:40:00,
2013-03-18 07:45:00,23.4,11.1,30.37,NNE,22,0.2,0.0,59,0.00,CLR,,0.00,WeatherDisplay:10.37,2013-03-18 11:45:00,
2013-03-18 07:50:00,24.1,11.8,30.37,NNE,22,0.2,0.0,59,0.00,CLR,,0.00,WeatherDisplay:10.37,2013-03-18 11:50:00,
2013-03-18 07:55:00,24.1,11.4,30.37,NNE,22,0.2,0.2,58,0.00,CLR,,0.00,WeatherDisplay:10.37,2013-03-18 11:55:00,
2013-03-18 08:00:00,24.4,11.4,30.37,NNE,22,0.2,0.2,57,0.00,CLR,,0.00,WeatherDisplay:10.37,2013-03-18 12:00:00,
2013-03-18 08:05:00,24.8,11.7,30.37,NNE,22,0.2,0.2,57,0.00,CLR,,0.00,WeatherDisplay:10.37,2013-03-18 12:05:00,
2013-03-18 08:10:00,25.2,11.6,30.37,NNE,22,0.2,0.2,56,0.00,CLR,,0.00,WeatherDisplay:10.37,2013-03-18 12:10:00,
2013-03-18 08:15:00,25.9,11.9,30.37,NNE,22,0.2,0.2,55,0.00,CLR,,0.00,WeatherDisplay:10.37,2013-03-18 12:15:00,
2013-03-18 08:20:00,26.1,12.1,30.37,NNE,22,0.2,0.0,55,0.00,CLR,,0.00,WeatherDisplay:10.37,2013-03-18 12:20:00,
2013-03-18 08:25:00,26.4,12.0,30.37,NNE,22,0.2,0.2,54,0.00,CLR,,0.00,WeatherDisplay:10.37,2013-03-18 12:25:00,
2013-03-18 08:30:00,27.0,12.5,30.37,NNE,22,0.2,0.2,54,0.00,CLR,,0.00,WeatherDisplay:10.37,2013-03-18 12:30:00,
2013-03-18 08:35:00,27.3,12.8,30.38,NNE,22,0.2,0.2,54,0.00,CLR,,0.00,WeatherDisplay:10.37,2013-03-18 12:35:00,
2013-03-18 08:40:00,27.7,12.8,30.38,NNE,22,0.2,0.0,53,0.00,CLR,,0.00,WeatherDisplay:10.37,2013-03-18 12:40:00,
2013-03-18 08:45:00,28.0,13.1,30.38,NNE,22,0.2,0.2,53,0.00,CLR,,0.00,WeatherDisplay:10.37,2013-03-18 12:45:00,
2013-03-18 08:50:00,28.4,13.4,30.38,NNE,22,0.2,0.2,53,0.00,CLR,,0.00,WeatherDisplay:10.37,2013-03-18 12:50:00,
2013-03-18 08:55:00,29.1,14.1,30.38,NNE,22,0.2,0.2,53,0.00,CLR,,0.00,WeatherDisplay:10.37,2013-03-18 12:55:00,
2013-03-18 09:00:00,29.7,14.2,30.39,NNE,22,0.2,0.2,52,0.00,CLR,,0.00,WeatherDisplay:10.37,2013-03-18 13:00:00,
2013-03-18 09:05:00,30.4,15.3,30.39,NNE,22,0.2,0.2,53,0.00,CLR,,0.00,WeatherDisplay:10.37,2013-03-18 13:05:00,
2013-03-18 09:10:00,30.7,15.2,30.38,NNE,22,0.2,0.2,52,0.00,CLR,,0.00,WeatherDisplay:10.37,2013-03-18 13:10:00,
2013-03-18 09:15:00,30.9,15.3,30.37,NNE,22,0.2,0.0,52,0.00,CLR,,0.00,WeatherDisplay:10.37,2013-03-18 13:15:00,
2013-03-18 09:20:00,31.3,15.7,30.37,NNE,22,0.2,0.2,52,0.00,CLR,,0.00,WeatherDisplay:10.37,2013-03-18 13:20:00,
2013-03-18 09:25:00,31.6,16.0,30.37,NNE,22,0.2,0.2,52,0.00,CLR,,0.00,WeatherDisplay:10.37,2013-03-18 13:25:00,
2013-03-18 09:30:00,32.0,16.8,30.37,NNE,22,0.2,0.2,53,0.00,CLR,,0.00,WeatherDisplay:10.37,2013-03-18 13:30:00,
2013-03-18 09:35:00,32.4,16.7,30.37,NNE,22,0.2,0.0,52,0.00,CLR,,0.00,WeatherDisplay:10.37,2013-03-18 13:35:00,
2013-03-18 09:40:00,32.7,16.6,30.37,NNE,22,0.2,0.2,51,0.00,CLR,,0.00,WeatherDisplay:10.37,2013-03-18 13:40:00,
2013-03-18 09:45:00,33.1,16.9,30.37,NNE,22,0.2,0.2,51,0.00,CLR,,0.00,WeatherDisplay:10.37,2013-03-18 13:45:00,
2013-03-18 09:50:00,33.4,17.2,30.37,NNE,22,0.2,0.2,51,0.00,CLR,,0.00,WeatherDisplay:10.37,2013-03-18 13:50:00,
2013-03-18 09:55:00,33.8,17.1,30.37,NNE,22,0.2,0.2,50,0.00,CLR,,0.00,WeatherDisplay:10.37,2013-03-18 13:55:00,
2013-03-18 10:00:00,34.2,17.4,30.37,NNE,22,0.2,0.2,50,0.00,CLR,,0.00,WeatherDisplay:10.37,2013-03-18 14:00:00,
2013-03-18 10:05:00,34.3,17.1,30.37,NNE,22,0.2,0.2,49,0.00,CLR,,0.00,WeatherDisplay:10.37,2013-03-18 14:05:00,
2013-03-18 10:10:00,34.7,17.0,30.37,NNE,22,0.2,0.2,48,0.00,CLR,,0.00,WeatherDisplay:10.37,2013-03-18 14:10:00,
2013-03-18 10:15:00,34.9,17.2,30.37,NNE,22,0.2,0.2,48,0.00,CLR,,0.00,WeatherDisplay:10.37,2013-03-18 14:15:00,
2013-03-18 10:20:00,34.9,16.7,30.37,NNE,22,0.2,0.0,47,0.00,CLR,,0.00,WeatherDisplay:10.37,2013-03-18 14:20:00,
2013-03-18 10:25:00,34.5,16.3,30.37,NNE,22,0.2,0.2,47,0.00,CLR,,0.00,WeatherDisplay:10.37,2013-03-18 14:25:00,
2013-03-18 10:30:00,34.7,16.5,30.37,NNE,22,0.2,0.2,47,0.00,CLR,,0.00,WeatherDisplay:10.37,2013-03-18 14:30:00,
2013-03-18 10:35:00,34.9,16.7,30.37,NNE,22,0.2,0.2,47,0.00,CLR,,0.00,WeatherDisplay:10.37,2013-03-18 14:35:00,
2013-03-18 10:40:00,34.9,16.7,30.37,NNE,22,0.2,0.2,47,0.00,CLR,,0.00,WeatherDisplay:10.37,2013-03-18 14:40:00,
2013-03-18 10:45:00,35.4,17.7,30.37,NNE,22,0.2,0.2,48,0.00,CLR,,0.00,WeatherDisplay:10.37,2013-03-18 14:45:00,
2013-03-18 10:50:00,35.6,17.3,30.37,NNE,22,0.2,0.2,47,0.00,CLR,,0.00,WeatherDisplay:10.37,2013-03-18 14:50:00,
2013-03-18 10:55:00,35.6,17.3,30.37,NNE,22,0.2,0.0,47,0.00,CLR,,0.00,WeatherDisplay:10.37,2013-03-18 14:55:00,
2013-03-18 11:00:00,36.1,17.8,30.37,NNE,22,0.2,0.2,47,0.00,CLR,,0.00,WeatherDisplay:10.37,2013-03-18 15:00:00,
2013-03-18 11:05:00,36.7,18.8,30.37,NNE,22,0.2,0.2,48,0.00,CLR,,0.00,WeatherDisplay:10.37,2013-03-18 15:05:00,
2013-03-18 11:10:00,37.0,18.7,30.36,NNE,22,0.2,0.2,47,0.00,CLR,,0.00,WeatherDisplay:10.37,2013-03-18 15:10:00,
2013-03-18 11:15:00,37.0,18.7,30.36,NNE,22,0.2,0.2,47,0.00,CLR,,0.00,WeatherDisplay:10.37,2013-03-18 15:15:00,
2013-03-18 11:20:00,37.2,18.8,30.36,SSE,158,4.3,4.6,47,0.00,CLR,,0.00,WeatherDisplay:10.37,2013-03-18 15:20:00,
2013-03-18 11:25:00,37.6,19.1,30.36,SSE,158,4.3,4.6,47,0.00,CLR,,0.00,WeatherDisplay:10.37,2013-03-18 15:25:00,
2013-03-18 11:30:00,38.1,18.6,30.36,SSE,158,4.3,4.6,45,0.00,CLR,,0.00,WeatherDisplay:10.37,2013-03-18 15:30:00,
2013-03-18 11:35:00,37.8,18.3,30.36,SSE,158,4.3,4.6,45,0.00,CLR,,0.00,WeatherDisplay:10.37,2013-03-18 15:35:00,
2013-03-18 11:40:00,37.9,18.5,30.35,SSE,158,4.3,4.6,45,0.00,CLR,,0.00,WeatherDisplay:10.37,2013-03-18 15:40:00,
2013-03-18 11:45:00,38.3,18.8,30.36,SSE,158,4.3,4.6,45,0.00,CLR,,0.00,WeatherDisplay:10.37,2013-03-18 15:45:00,
2013-03-18 11:50:00,38.5,19.0,30.35,SSE,158,4.3,4.6,45,0.00,CLR,,0.00,WeatherDisplay:10.37,2013-03-18 15:50:00,
2013-03-18 11:55:00,38.1,18.6,30.36,SSE,158,4.3,4.6,45,0.00,CLR,,0.00,WeatherDisplay:10.37,2013-03-18 15:55:00,
2013-03-18 12:00:00,37.9,19.0,30.35,SSE,158,4.3,4.6,46,0.00,CLR,,0.00,WeatherDisplay:10.37,2013-03-18 16:00:00,
2013-03-18 12:05:00,37.9,18.5,30.35,SSE,158,4.3,4.6,45,0.00,CLR,,0.00,WeatherDisplay:10.37,2013-03-18 16:05:00,
2013-03-18 12:10:00,37.8,18.3,30.35,SSE,158,4.3,4.6,45,0.00,CLR,,0.00,WeatherDisplay:10.37,2013-03-18 16:10:00,
2013-03-18 12:15:00,37.4,19.0,30.35,SSE,158,4.3,4.6,47,0.00,CLR,,0.00,WeatherDisplay:10.37,2013-03-18 16:15:00,
2013-03-18 12:20:00,37.6,18.6,30.35,SSE,158,4.3,4.6,46,0.00,CLR,,0.00,WeatherDisplay:10.37,2013-03-18 16:20:00,
2013-03-18 12:25:00,37.8,18.8,30.34,SSE,158,4.3,4.6,46,0.00,CLR,,0.00,WeatherDisplay:10.37,2013-03-18 16:25:00,
2013-03-18 12:30:00,37.9,19.0,30.34,SSE,158,4.3,4.6,46,0.00,CLR,,0.00,WeatherDisplay:10.37,2013-03-18 16:30:00,
2013-03-18 12:35:00,38.1,19.6,30.35,SSE,158,4.3,4.6,47,0.00,CLR,,0.00,WeatherDisplay:10.37,2013-03-18 16:35:00,
2013-03-18 12:40:00,38.3,19.8,30.35,SSE,158,4.7,4.7,47,0.00,CLR,,0.00,WeatherDisplay:10.37,2013-03-18 16:40:00,
2013-03-18 12:45:00,38.5,20.0,30.34,SE,135,3.3,3.5,47,0.00,CLR,,0.00,WeatherDisplay:10.37,2013-03-18 16:45:00,
2013-03-18 12:50:00,38.5,20.5,30.35,SE,135,3.3,3.5,48,0.00,CLR,,0.00,WeatherDisplay:10.37,2013-03-18 16:50:00,
2013-03-18 12:55:00,38.8,19.8,30.34,SE,135,3.3,3.5,46,0.00,CLR,,0.00,WeatherDisplay:10.37,2013-03-18 16:55:00,
2013-03-18 13:00:00,38.8,19.8,30.35,SE,135,3.3,3.5,46,0.00,CLR,,0.00,WeatherDisplay:10.37,2013-03-18 17:00:00,
2013-03-18 13:05:00,38.5,19.5,30.34,SE,135,3.3,3.5,46,0.00,CLR,,0.00,WeatherDisplay:10.37,2013-03-18 17:05:00,
2013-03-18 13:10:00,38.1,19.6,30.35,SE,135,3.3,3.5,47,0.00,CLR,,0.00,WeatherDisplay:10.37,2013-03-18 17:10:00,
2013-03-18 13:15:00,38.3,19.8,30.34,SE,135,3.3,3.5,47,0.00,CLR,,0.00,WeatherDisplay:10.37,2013-03-18 17:15:00,
2013-03-18 13:20:00,38.8,20.3,30.34,SE,135,3.3,3.5,47,0.00,CLR,,0.00,WeatherDisplay:10.37,2013-03-18 17:20:00,
2013-03-18 13:25:00,39.2,20.1,30.34,SE,135,3.3,3.5,46,0.00,CLR,,0.00,WeatherDisplay:10.37,2013-03-18 17:25:00,
2013-03-18 13:30:00,39.2,20.1,30.34,SE,135,3.3,3.5,46,0.00,CLR,,0.00,WeatherDisplay:10.37,2013-03-18 17:30:00,
2013-03-18 13:35:00,39.4,20.8,30.34,SE,135,3.3,3.5,47,0.00,CLR,,0.00,WeatherDisplay:10.37,2013-03-18 17:35:00,
2013-03-18 13:40:00,39.4,19.8,30.34,SE,135,3.3,3.5,45,0.00,CLR,,0.00,WeatherDisplay:10.37,2013-03-18 17:40:00,
2013-03-18 13:45:00,38.8,19.8,30.34,SE,135,3.3,3.5,46,0.00,CLR,,0.00,WeatherDisplay:10.37,2013-03-18 17:45:00,
2013-03-18 13:50:00,38.8,19.8,30.34,SE,135,3.3,3.5,46,0.00,CLR,,0.00,WeatherDisplay:10.37,2013-03-18 17:50:00,
2013-03-18 13:55:00,38.5,19.5,30.33,SE,135,3.3,3.5,46,0.00,CLR,,0.00,WeatherDisplay:10.37,2013-03-18 17:55:00,
2013-03-18 14:00:00,38.7,19.6,30.33,SE,135,3.3,3.5,46,0.00,CLR,,0.00,WeatherDisplay:10.37,2013-03-18 18:00:00,
2013-03-18 14:05:00,38.3,19.3,30.33,NE,45,4.9,4.9,46,0.00,CLR,,0.00,WeatherDisplay:10.37,2013-03-18 18:05:00,
2013-03-18 14:10:00,38.5,20.0,30.33,NE,45,4.9,4.9,47,0.00,CLR,,0.00,WeatherDisplay:10.37,2013-03-18 18:10:00,
2013-03-18 14:15:00,38.7,19.6,30.33,NE,45,4.9,4.9,46,0.00,CLR,,0.00,WeatherDisplay:10.37,2013-03-18 18:15:00,
2013-03-18 14:20:00,38.8,20.3,30.32,NE,45,4.9,4.9,47,0.00,CLR,,0.00,WeatherDisplay:10.37,2013-03-18 18:20:00,
2013-03-18 14:25:00,39.2,20.1,30.32,NE,45,4.9,4.9,46,0.00,CLR,,0.00,WeatherDisplay:10.37,2013-03-18 18:25:00,
2013-03-18 14:30:00,38.8,19.8,30.32,NE,45,4.9,4.9,46,0.00,CLR,,0.00,WeatherDisplay:10.37,2013-03-18 18:30:00,
2013-03-18 14:35:00,38.8,20.3,30.32,NE,45,4.9,4.9,47,0.00,CLR,,0.00,WeatherDisplay:10.37,2013-03-18 18:35:00,
2013-03-18 14:40:00,38.5,19.0,30.32,NE,45,4.9,4.9,45,0.00,CLR,,0.00,WeatherDisplay:10.37,2013-03-18 18:40:00,
2013-03-18 14:45:00,38.3,19.3,30.32,NE,45,4.9,4.9,46,0.00,CLR,,0.00,WeatherDisplay:10.37,2013-03-18 18:45:00,
2013-03-18 14:50:00,38.7,20.6,30.31,NE,45,4.9,4.9,48,0.00,CLR,,0.00,WeatherDisplay:10.37,2013-03-18 18:50:00,
2013-03-18 14:55:00,39.0,20.0,30.31,NE,45,4.9,4.9,46,0.00,CLR,,0.00,WeatherDisplay:10.37,2013-03-18 18:55:00,
2013-03-18 15:00:00,39.0,20.0,30.31,NE,45,4.9,4.9,46,0.00,CLR,,0.00,WeatherDisplay:10.37,2013-03-18 19:00:00,
2013-03-18 15:05:00,38.8,19.8,30.31,NE,45,4.9,4.9,46,0.00,CLR,,0.00,WeatherDisplay:10.37,2013-03-18 19:05:00,
2013-03-18 15:10:00,38.8,19.8,30.31,NE,45,4.9,4.9,46,0.00,CLR,,0.00,WeatherDisplay:10.37,2013-03-18 19:10:00,
2013-03-18 15:15:00,38.7,19.6,30.31,NE,45,4.9,4.9,46,0.00,CLR,,0.00,WeatherDisplay:10.37,2013-03-18 19:15:00,
2013-03-18 15:20:00,38.5,20.0,30.31,NE,45,4.9,4.9,47,0.00,CLR,,0.00,WeatherDisplay:10.37,2013-03-18 19:20:00,
2013-03-18 15:25:00,38.1,19.6,30.30,NE,45,4.9,4.9,47,0.00,CLR,,0.00,WeatherDisplay:10.37,2013-03-18 19:25:00,
2013-03-18 15:30:00,37.8,19.8,30.30,NE,45,4.9,4.9,48,0.00,CLR,,0.00,WeatherDisplay:10.37,2013-03-18 19:30:00,
2013-03-18 15:35:00,37.8,19.8,30.30,NE,45,4.9,4.9,48,0.00,CLR,,0.00,WeatherDisplay:10.37,2013-03-18 19:35:00,
2013-03-18 15:40:00,37.9,20.0,30.30,NE,45,4.9,4.9,48,0.00,CLR,,0.00,WeatherDisplay:10.37,2013-03-18 19:40:00,
2013-03-18 15:45:00,37.8,19.3,30.30,NE,45,4.9,4.9,47,0.00,CLR,,0.00,WeatherDisplay:10.37,2013-03-18 19:45:00,
2013-03-18 15:50:00,37.4,19.5,30.30,NE,45,4.9,4.9,48,0.00,CLR,,0.00,WeatherDisplay:10.37,2013-03-18 19:50:00,
2013-03-18 15:55:00,37.2,19.3,30.30,NE,45,4.9,4.9,48,0.00,CLR,,0.00,WeatherDisplay:10.37,2013-03-18 19:55:00,
2013-03-18 16:00:00,37.4,20.0,30.29,NE,45,4.9,4.9,49,0.00,CLR,,0.00,WeatherDisplay:10.37,2013-03-18 20:00:00,
2013-03-18 16:05:00,37.0,19.6,30.29,NE,45,4.9,4.9,49,0.00,CLR,,0.00,WeatherDisplay:10.37,2013-03-18 20:05:00,
2013-03-18 16:10:00,37.0,19.6,30.29,NE,45,4.9,4.9,49,0.00,CLR,,0.00,WeatherDisplay:10.37,2013-03-18 20:10:00,
2013-03-18 16:15:00,36.7,19.3,30.29,NE,45,4.9,4.9,49,0.00,CLR,,0.00,WeatherDisplay:10.37,2013-03-18 20:15:00,
2013-03-18 16:20:00,36.5,19.1,30.29,NE,45,4.9,4.9,49,0.00,CLR,,0.00,WeatherDisplay:10.37,2013-03-18 20:20:00,
2013-03-18 16:25:00,36.3,19.4,30.29,NE,45,4.9,4.9,50,0.00,CLR,,0.00,WeatherDisplay:10.37,2013-03-18 20:25:00,
2013-03-18 16:30:00,36.3,19.4,30.29,NE,45,4.9,4.9,50,0.00,CLR,,0.00,WeatherDisplay:10.37,2013-03-18 20:30:00,
2013-03-18 16:35:00,36.3,19.4,30.29,NE,45,4.9,4.9,50,0.00,CLR,,0.00,WeatherDisplay:10.37,2013-03-18 20:35:00,
2013-03-18 16:40:00,36.3,19.9,30.29,NE,45,4.9,4.9,51,0.00,CLR,,0.00,WeatherDisplay:10.37,2013-03-18 20:40:00,
2013-03-18 16:45:00,36.3,19.9,30.29,SSE,158,2.2,2.3,51,0.00,CLR,,0.00,WeatherDisplay:10.37,2013-03-18 20:45:00,
2013-03-18 16:50:00,36.0,20.0,30.28,SSE,158,2.2,2.3,52,0.00,CLR,,0.00,WeatherDisplay:10.37,2013-03-18 20:50:00,
2013-03-18 16:55:00,35.6,20.1,30.28,SSE,158,2.2,2.3,53,0.00,CLR,,0.00,WeatherDisplay:10.37,2013-03-18 20:55:00,
2013-03-18 17:00:00,35.6,20.1,30.28,SSE,158,2.2,2.3,53,0.00,CLR,,0.00,WeatherDisplay:10.37,2013-03-18 21:00:00,
2013-03-18 17:05:00,35.2,19.8,30.27,SSE,158,2.2,2.3,53,0.00,CLR,,0.00,WeatherDisplay:10.37,2013-03-18 21:05:00,
2013-03-18 17:10:00,35.1,19.6,30.27,SSE,158,2.2,2.3,53,0.00,CLR,,0.00,WeatherDisplay:10.37,2013-03-18 21:10:00,
2013-03-18 17:15:00,34.9,20.3,30.27,SSE,158,2.2,2.3,55,0.00,CLR,,0.00,WeatherDisplay:10.37,2013-03-18 21:15:00,
2013-03-18 17:20:00,34.7,20.2,30.26,SSE,158,2.2,2.3,55,0.00,CLR,,0.00,WeatherDisplay:10.37,2013-03-18 21:20:00,
2013-03-18 17:25:00,34.5,20.0,30.26,SSE,158,2.2,2.3,55,0.00,CLR,,0.00,WeatherDisplay:10.37,2013-03-18 21:25:00,
2013-03-18 17:30:00,34.5,20.4,30.26,SSE,158,2.2,2.3,56,0.00,CLR,,0.00,WeatherDisplay:10.37,2013-03-18 21:30:00,
2013-03-18 17:35:00,34.3,20.3,30.26,SSE,158,2.2,2.3,56,0.00,CLR,,0.00,WeatherDisplay:10.37,2013-03-18 21:35:00,
2013-03-18 17:40:00,34.3,20.3,30.26,SSE,158,2.2,2.3,56,0.00,CLR,,0.00,WeatherDisplay:10.37,2013-03-18 21:40:00,
2013-03-18 17:45:00,34.2,20.5,30.26,SSE,158,2.2,2.3,57,0.00,CLR,,0.00,WeatherDisplay:10.37,2013-03-18 21:45:00,
2013-03-18 17:50:00,34.2,20.5,30.25,SSE,158,2.2,2.3,57,0.00,CLR,,0.00,WeatherDisplay:10.37,2013-03-18 21:50:00,
2013-03-18 17:55:00,33.6,20.0,30.25,SSE,158,2.2,2.3,57,0.00,CLR,,0.00,WeatherDisplay:10.37,2013-03-18 21:55:00,
2013-03-18 18:00:00,33.6,20.8,30.26,SSE,158,2.2,2.3,59,0.00,CLR,,0.00,WeatherDisplay:10.37,2013-03-18 22:00:00,
2013-03-18 18:05:00,33.6,20.0,30.26,SSE,158,2.2,2.3,57,0.00,CLR,,0.00,WeatherDisplay:10.37,2013-03-18 22:05:00,
2013-03-18 18:11:00,33.6,20.4,30.26,SE,135,4.7,4.7,58,0.00,CLR,,0.00,WeatherDisplay:10.37,2013-03-18 22:11:00,
2013-03-18 18:16:00,33.6,20.8,30.26,SE,135,4.7,4.7,59,0.00,CLR,,0.00,WeatherDisplay:10.37,2013-03-18 22:16:00,
2013-03-18 18:21:00,33.4,20.6,30.26,SE,135,2.0,2.3,59,0.00,CLR,,0.00,WeatherDisplay:10.37,2013-03-18 22:21:00,
2013-03-18 18:26:00,33.3,20.1,30.25,SE,135,2.0,2.3,58,0.00,CLR,,0.00,WeatherDisplay:10.37,2013-03-18 22:26:00,
2013-03-18 18:31:00,33.4,20.6,30.25,SE,135,2.0,2.3,59,0.00,CLR,,0.00,WeatherDisplay:10.37,2013-03-18 22:31:00,
2013-03-18 18:36:00,33.3,20.5,30.24,SE,135,2.0,2.3,59,0.00,CLR,,0.00,WeatherDisplay:10.37,2013-03-18 22:36:00,
2013-03-18 18:41:00,33.3,20.5,30.24,SE,135,2.0,2.3,59,0.00,CLR,,0.00,WeatherDisplay:10.37,2013-03-18 22:41:00,
2013-03-18 18:46:00,33.1,20.3,30.25,SE,135,2.0,2.3,59,0.00,CLR,,0.00,WeatherDisplay:10.37,2013-03-18 22:46:00,
2013-03-18 18:51:00,33.1,20.3,30.25,SE,135,2.0,2.3,59,0.00,CLR,,0.00,WeatherDisplay:10.37,2013-03-18 22:51:00,
2013-03-18 18:56:00,32.9,20.1,30.25,SE,135,2.0,2.3,59,0.00,CLR,,0.00,WeatherDisplay:10.37,2013-03-18 22:56:00,
2013-03-18 19:01:00,32.9,20.1,30.25,SE,135,2.0,2.3,59,0.00,CLR,,0.00,WeatherDisplay:10.37,2013-03-18 23:01:00,
2013-03-18 19:06:00,32.7,20.4,30.25,SE,135,2.0,2.3,60,0.00,CLR,,0.00,WeatherDisplay:10.37,2013-03-18 23:06:00,
2013-03-18 19:11:00,32.7,20.4,30.26,SE,135,2.0,2.3,60,0.00,CLR,,0.00,WeatherDisplay:10.37,2013-03-18 23:11:00,
2013-03-18 19:16:00,32.7,20.4,30.26,SE,135,2.0,2.3,60,0.00,CLR,,0.00,WeatherDisplay:10.37,2013-03-18 23:16:00,
2013-03-18 19:21:00,32.7,20.4,30.26,SE,135,2.0,2.3,60,0.00,CLR,,0.00,WeatherDisplay:10.37,2013-03-18 23:21:00,
2013-03-18 19:26:00,32.7,20.7,30.26,SE,135,2.0,2.3,61,0.00,CLR,,0.00,WeatherDisplay:10.37,2013-03-18 23:26:00,
2013-03-18 19:31:00,32.7,20.7,30.26,SE,135,2.0,2.3,61,0.00,CLR,,0.00,WeatherDisplay:10.37,2013-03-18 23:31:00,
2013-03-18 19:36:00,32.7,20.7,30.26,SE,135,2.0,2.3,61,0.00,CLR,,0.00,WeatherDisplay:10.37,2013-03-18 23:36:00,
2013-03-18 19:41:00,32.7,20.7,30.26,SE,135,2.0,2.3,61,0.00,CLR,,0.00,WeatherDisplay:10.37,2013-03-18 23:41:00,
2013-03-18 19:46:00,32.9,21.3,30.26,SE,135,2.0,2.3,62,0.00,CLR,,0.00,WeatherDisplay:10.37,2013-03-18 23:46:00,
2013-03-18 19:51:00,32.9,21.3,30.26,SE,135,2.0,2.3,62,0.00,CLR,,0.00,WeatherDisplay:10.37,2013-03-18 23:51:00,
2013-03-18 19:56:00,33.1,21.5,30.26,SE,135,2.0,2.3,62,0.00,CLR,,0.00,WeatherDisplay:10.37,2013-03-18 23:56:00,
2013-03-18 20:01:00,33.1,21.5,30.26,SE,135,2.0,2.3,62,0.00,CLR,,0.00,WeatherDisplay:10.37,2013-03-19 00:01:00,
2013-03-18 20:06:00,32.9,21.7,30.26,SE,135,2.0,2.3,63,0.00,CLR,,0.00,WeatherDisplay:10.37,2013-03-19 00:06:00,
2013-03-18 20:11:00,32.9,21.7,30.26,SE,135,2.0,2.3,63,0.00,CLR,,0.00,WeatherDisplay:10.37,2013-03-19 00:11:00,
2013-03-18 20:16:00,32.7,21.5,30.25,SE,135,2.0,2.3,63,0.00,CLR,,0.00,WeatherDisplay:10.37,2013-03-19 00:16:00,
2013-03-18 20:21:00,32.7,21.5,30.24,SE,135,2.0,2.3,63,0.00,CLR,,0.00,WeatherDisplay:10.37,2013-03-19 00:21:00,
2013-03-18 20:26:00,32.7,21.5,30.24,SE,135,2.0,2.3,63,0.00,CLR,,0.00,WeatherDisplay:10.37,2013-03-19 00:26:00,
2013-03-18 20:31:00,32.9,21.7,30.24,SE,135,2.0,2.3,63,0.00,CLR,,0.00,WeatherDisplay:10.37,2013-03-19 00:31:00,
2013-03-18 20:36:00,32.7,21.5,30.24,SE,135,2.0,2.3,63,0.00,CLR,,0.00,WeatherDisplay:10.37,2013-03-19 00:36:00,
2013-03-18 20:41:00,32.9,21.7,30.24,SE,135,2.0,2.3,63,0.00,CLR,,0.00,WeatherDisplay:10.37,2013-03-19 00:41:00,
2013-03-18 20:46:00,32.9,22.0,30.24,SE,135,2.0,2.3,64,0.00,CLR,,0.00,WeatherDisplay:10.37,2013-03-19 00:46:00,
2013-03-18 20:51:00,32.9,22.0,30.24,SE,135,2.0,2.3,64,0.00,CLR,,0.00,WeatherDisplay:10.37,2013-03-19 00:51:00,
2013-03-18 20:56:00,32.9,22.0,30.23,SE,135,2.0,2.3,64,0.00,CLR,,0.00,WeatherDisplay:10.37,2013-03-19 00:56:00,
2013-03-18 21:01:00,33.1,22.2,30.24,SE,135,2.0,2.3,64,0.00,CLR,,0.00,WeatherDisplay:10.37,2013-03-19 01:01:00,
2013-03-18 21:06:00,33.1,22.2,30.23,ESE,112,4.0,4.6,64,0.00,CLR,,0.00,WeatherDisplay:10.37,2013-03-19 01:06:00,
2013-03-18 21:11:00,33.1,22.2,30.23,ESE,112,4.0,4.6,64,0.00,CLR,,0.00,WeatherDisplay:10.37,2013-03-19 01:11:00,
2013-03-18 21:16:00,33.3,22.4,30.23,ESE,112,4.0,4.6,64,0.00,CLR,,0.00,WeatherDisplay:10.37,2013-03-19 01:16:00,
2013-03-18 21:21:00,33.3,22.4,30.23,ESE,112,4.0,4.6,64,0.00,CLR,,0.00,WeatherDisplay:10.37,2013-03-19 01:21:00,
2013-03-18 21:26:00,33.3,22.4,30.23,ESE,112,4.0,4.6,64,0.00,CLR,,0.00,WeatherDisplay:10.37,2013-03-19 01:26:00,
2013-03-18 21:31:00,33.1,22.2,30.23,ESE,112,4.0,4.6,64,0.00,CLR,,0.00,WeatherDisplay:10.37,2013-03-19 01:31:00,
2013-03-18 21:36:00,33.3,22.8,30.23,ESE,112,4.0,4.6,65,0.00,CLR,,0.00,WeatherDisplay:10.37,2013-03-19 01:36:00,
2013-03-18 21:41:00,33.1,22.2,30.23,ESE,112,4.0,4.6,64,0.00,CLR,,0.00,WeatherDisplay:10.37,2013-03-19 01:41:00,
2013-03-18 21:46:00,33.3,22.8,30.23,ESE,112,4.0,4.6,65,0.00,CLR,,0.00,WeatherDisplay:10.37,2013-03-19 01:46:00,
2013-03-18 21:51:00,33.3,22.8,30.23,ESE,112,4.0,4.6,65,0.00,CLR,,0.00,WeatherDisplay:10.37,2013-03-19 01:51:00,
2013-03-18 21:56:00,33.4,23.3,30.22,ESE,112,4.0,4.6,66,0.00,CLR,,0.00,WeatherDisplay:10.37,2013-03-19 01:56:00,
2013-03-18 22:01:00,33.4,23.3,30.22,ESE,112,4.0,4.6,66,0.00,CLR,,0.00,WeatherDisplay:10.37,2013-03-19 02:01:00,
2013-03-18 22:06:00,33.4,23.3,30.22,ESE,112,4.0,4.6,66,0.00,CLR,,0.00,WeatherDisplay:10.37,2013-03-19 02:06:00,
2013-03-18 22:11:00,33.4,23.7,30.22,ESE,112,4.0,4.6,67,0.00,CLR,,0.00,WeatherDisplay:10.37,2013-03-19 02:11:00,
2013-03-18 22:16:00,33.4,23.3,30.21,ESE,112,4.0,4.6,66,0.00,CLR,,0.00,WeatherDisplay:10.37,2013-03-19 02:16:00,
2013-03-18 22:21:00,33.4,23.3,30.21,ESE,112,4.0,4.6,66,0.00,CLR,,0.00,WeatherDisplay:10.37,2013-03-19 02:21:00,
2013-03-18 22:26:00,33.4,23.3,30.21,SE,135,4.0,6.9,66,0.00,CLR,,0.00,WeatherDisplay:10.37,2013-03-19 02:26:00,
2013-03-18 22:31:00,33.6,23.8,30.20,SSE,158,0.9,6.9,67,0.00,CLR,,0.00,WeatherDisplay:10.37,2013-03-19 02:31:00,
2013-03-18 22:36:00,33.6,23.8,30.20,ESE,112,6.4,6.4,67,0.00,CLR,,0.00,WeatherDisplay:10.37,2013-03-19 02:36:00,
2013-03-18 22:41:00,33.6,23.8,30.20,ESE,112,5.4,5.4,67,0.00,CLR,,0.00,WeatherDisplay:10.37,2013-03-19 02:41:00,
2013-03-18 22:46:00,33.8,24.0,30.20,South,180,2.4,4.6,67,0.00,CLR,,0.00,WeatherDisplay:10.37,2013-03-19 02:46:00,
2013-03-18 22:51:00,33.8,24.0,30.19,SSE,158,4.0,4.0,67,0.00,CLR,,0.00,WeatherDisplay:10.37,2013-03-19 02:51:00,
2013-03-18 22:56:00,33.8,24.4,30.19,SE,135,1.6,2.3,68,0.00,CLR,,0.00,WeatherDisplay:10.37,2013-03-19 02:56:00,
2013-03-18 23:01:00,33.8,24.4,30.19,SE,135,6.2,6.2,68,0.00,CLR,,0.00,WeatherDisplay:10.37,2013-03-19 03:01:00,
2013-03-18 23:06:00,33.8,24.4,30.19,SE,135,6.2,6.2,68,0.00,CLR,,0.00,WeatherDisplay:10.37,2013-03-19 03:06:00,
2013-03-18 23:11:00,34.0,24.5,30.19,East,90,1.4,4.6,68,0.00,CLR,,0.00,WeatherDisplay:10.37,2013-03-19 03:11:00,
2013-03-18 23:16:00,34.0,24.5,30.18,ESE,112,7.6,8.1,68,0.00,CLR,,0.00,WeatherDisplay:10.37,2013-03-19 03:16:00,
2013-03-18 23:21:00,34.0,24.5,30.18,ESE,112,6.2,8.1,68,0.00,CLR,,0.00,WeatherDisplay:10.37,2013-03-19 03:21:00,
2013-03-18 23:26:00,34.0,24.5,30.18,ESE,112,7.6,7.6,68,0.00,CLR,,0.00,WeatherDisplay:10.37,2013-03-19 03:26:00,
2013-03-18 23:31:00,34.2,24.3,30.18,ENE,68,3.8,3.8,67,0.00,CLR,,0.00,WeatherDisplay:10.37,2013-03-19 03:31:00,
2013-03-18 23:36:00,34.2,24.3,30.18,ENE,68,5.9,5.9,67,0.00,CLR,,0.00,WeatherDisplay:10.37,2013-03-19 03:36:00,
2013-03-18 23:41:00,34.2,24.7,30.18,NE,45,3.1,4.6,68,0.00,CLR,,0.00,WeatherDisplay:10.37,2013-03-19 03:41:00,
2013-03-18 23:46:00,34.2,24.3,30.18,ESE,112,4.7,8.1,67,0.00,CLR,,0.00,WeatherDisplay:10.37,2013-03-19 03:46:00,
2013-03-18 23:51:00,34.2,24.3,30.17,ENE,68,5.6,8.1,67,0.00,CLR,,0.00,WeatherDisplay:10.37,2013-03-19 03:51:00,
2013-03-18 23:56:00,34.2,24.3,30.17,East,90,7.1,7.1,67,0.00,CLR,,0.00,WeatherDisplay:10.37,2013-03-19 03:56:00,